Weather History for Torrington, WY

Change the Weather History Date:

Thursday, February 2, 2012

  Actual Average Record
Temperature  
Mean Temperature 38 °F 29 °F  
Max Temperature 47 °F 43 °F 58 °F (2000)
Min Temperature 28 °F 15 °F -22 °F (2011)
Degree Days  
Heating Degree Days 27 36  
Month to date heating degree days 58 72  
Since 1 July heating degree days 3763 3967  
Cooling Degree Days 0 0  
Month to date cooling degree days 0 0  
Year to date cooling degree days 0 0  
Moisture  
Dew Point 18 °F    
Average Humidity 45    
Maximum Humidity 64    
Minimum Humidity 25    
Precipitation  
Precipitation T in 0.01 in 0.03 in (2003)
Month to date precipitation T 0.02  
Year to date precipitation 0.22 0.28  
Sea Level Pressure  
Sea Level Pressure 30.11 in    
Wind  
Wind Speed 9 mph (ENE)    
Max Wind Speed 21 mph    
Max Gust Speed 26 mph    
Visibility 10 miles    
Events Snow    
T = Trace of Precipitation, MM = Missing Value Source: NWS Daily Summary

Daily Weather History Graph

Daily Weather History Graph

Search for Another Location

Airport:

Trip Planner

Search our weather history database for the weather conditions in past years. The results will help you decide how hot, cold, wet, or windy it might be!

Date:

Astronomy

Feb. 02, 2012 Rise Set
Actual Time 7:08 AM MST 5:12 PM MST
Civil Twilight 6:39 AM MST 5:41 PM MST
Nautical Twilight 6:05 AM MST 6:15 PM MST
Astronomical Twilight 5:33 AM MST 6:47 PM MST
Moon 12:23 PM MST (2/2) 2:55 AM MST (2/2)
Length of Visible Light 11h 02m
Length of Day
10h 03m
Waxing Gibbous, 74% of the Moon is Illuminated
Feb 2
Waxing Gibbous
Feb 7
Full
Feb 14
Last Quarter
Feb 21
New
Feb 29
First Quarter

Hourly Weather History & Observations

Time (MST) Temp. Windchill Dew Point Humidity Pressure Visibility Wind Dir Wind Speed Gust Speed Precip Events Conditions
12:53 AM 30.9 °F 22.2 °F 12.0 °F 46% 30.08 in 10.0 mi East 10.4 mph - N/A   Clear
1:53 AM 30.9 °F 23.5 °F 12.0 °F 46% 30.08 in 10.0 mi ESE 8.1 mph - N/A   Clear
2:53 AM 30.9 °F 23.5 °F 12.9 °F 47% 30.06 in 10.0 mi ESE 8.1 mph - N/A   Clear
3:53 AM 30.0 °F 21.7 °F 12.9 °F 49% 30.06 in 10.0 mi ESE 9.2 mph - N/A   Clear
4:53 AM 30.0 °F 22.4 °F 12.0 °F 47% 30.08 in 10.0 mi ESE 8.1 mph - N/A   Clear
5:53 AM 28.9 °F - 12.0 °F 49% 30.09 in 10.0 mi Calm Calm - N/A   Clear
6:53 AM 28.9 °F - 12.9 °F 51% 30.10 in 10.0 mi Calm Calm - N/A   Clear
7:53 AM 28.9 °F 25.2 °F 14.0 °F 54% 30.12 in 10.0 mi ENE 3.5 mph - N/A   Mostly Cloudy
8:53 AM 32.0 °F 24.2 °F 12.0 °F 44% 30.12 in 10.0 mi East 9.2 mph - N/A   Mostly Cloudy
9:53 AM 37.0 °F 31.0 °F 12.0 °F 36% 30.11 in 10.0 mi East 8.1 mph - N/A   Clear
10:53 AM 41.0 °F 39.0 °F 12.0 °F 31% 30.09 in 10.0 mi East 3.5 mph - N/A   Clear
11:53 AM 44.1 °F - 12.0 °F 27% 30.06 in 10.0 mi Calm Calm - N/A   Mostly Cloudy
12:53 PM 46.0 °F 40.6 °F 12.9 °F 26% 30.03 in 10.0 mi NE 11.5 mph - N/A   Overcast
1:53 PM 46.0 °F 39.0 °F 12.9 °F 26% 30.02 in 10.0 mi NE 17.3 mph 23.0 mph N/A   Overcast
2:53 PM 46.0 °F 39.6 °F 16.0 °F 30% 30.04 in 10.0 mi NE 15.0 mph 19.6 mph N/A   Overcast
3:53 PM 42.1 °F 36.1 °F 23.0 °F 47% 30.07 in 10.0 mi NE 10.4 mph 24.2 mph N/A   Overcast
4:53 PM 39.9 °F 33.9 °F 21.9 °F 49% 30.11 in 10.0 mi NNE 9.2 mph - N/A   Overcast
5:53 PM 37.9 °F 29.6 °F 27.0 °F 65% 30.15 in 10.0 mi NE 13.8 mph 21.9 mph N/A   Overcast
6:08 PM 37.4 °F 29.3 °F 26.6 °F 65% 30.10 in 9.0 mi NNE 12.7 mph 19.6 mph N/A   Overcast
6:53 PM 34.0 °F 26.0 °F 30.9 °F 89% 30.20 in 8.0 mi NE 10.4 mph 17.3 mph 0.00 in Snow Light Snow
7:53 PM 35.1 °F 26.9 °F 26.1 °F 70% 30.21 in 9.0 mi NNE 11.5 mph - 0.00 in   Overcast
8:07 PM 35.6 °F 27.1 °F 23.0 °F 60% 30.14 in 10.0 mi NNE 12.7 mph - N/A   Overcast
8:53 PM 36.0 °F 27.5 °F 23.0 °F 59% 30.22 in 10.0 mi North 12.7 mph 16.1 mph N/A   Overcast
9:53 PM 35.1 °F 28.6 °F 24.1 °F 64% 30.22 in 10.0 mi NNW 8.1 mph - N/A   Overcast
10:53 PM 34.0 °F 26.6 °F 23.0 °F 64% 30.23 in 10.0 mi North 9.2 mph - N/A   Overcast
11:53 PM 33.1 °F 22.2 °F 23.0 °F 66% 30.22 in 10.0 mi North 17.3 mph - N/A   Overcast